Tous vos exploits sur  Logo Planète Marathon le site 100% Marathon

In Flanders Fields Marathon (Belgique)              Donnez votre avis sur l'édition 2016

IFFM2016.jpg

Le 11/09/2016 - 18ème édition - 529 arrivants.                                                       

Clmt. Temps Nom Prénom Club Organisme Catégorie
1 2:37:18 Moeyaert Joris (BEL) M35 (+)
2 2:41:14 Voet Bjorn (BEL) M40 (+)
3 2:41:37 Brysbaert Kevin M (+)
4 2:47:00 De Smet Diebrecht M (+)
5 2:49:14 Druez Bruno (FRA) V1M/69 (+)
6 2:50:41 Royaert Geert (BEL) M45 (+)
7 2:54:28 Rumphakwaen Nid (BEL) M (+)
8 2:55:11 Ryckeboer Jan M (+)
9 2:56:41 Verdonck Dieter (BEL) M40 (+)
10 2:57:00 Janssens Franky M40 (+)
11 2:57:22 Van Bladel Joris M50 (+)
12 2:57:29 Tilleman Bruno M45 (+)
13 2:58:15 De Clerck Jan M (+)
14 2:58:45 Dieryck Pascal M45 (+)
15 2:58:46 Dewilde Wim M (+)
16 2:59:59 Beaumon Joris M40 (+)
17 3:02:00 Guillemyn Bart M40 (+)
18 3:03:48 Van Den Dries Pascal M50 (+)
19 3:04:51 Smyth Geoff M45 (+)
20 3:05:24 Driesen Wim M (+)
21 3:06:11 Winters Erik M35 (+)
22 3:06:20 Langenus Freddy M60 (+)
23 3:06:49 Vandenbussche Steven M40 (+)
24 3:06:53 Languillier Gregory M (+)
25 3:07:01 Tondeur Stijn M35 (+)
26 3:07:18 Bilterijst Nico M45 (+)
27 3:08:07 Dumalin Nico M45 (+)
28 3:08:09 Vandevoorde Pascal M45 (+)
29 3:08:26 Schapman Carlos M50 (+)
30 3:09:10 Dekens Danny M55 (+)
31 3:09:31 Ryckaert Geert M45 (+)
32 3:10:29 Deleersnijder Patrick M50 (+)
33 3:10:30 Verschaeve Bart M40 (+)
34 3:10:56 Lievens Patrick M50 (+)
35 3:10:59 Velghe Robin M35 (+)
36 3:11:52 Rosseel Paul M45 (+)
37 3:11:55 Van Eenooge Eddy M50 (+)
38 3:11:59 Vaizey George M (+)
39 3:12:34 Vanhee Santi M50 (+)
40 3:12:58 Vandewalle Xavier M45 (+)
41 3:13:05 Landrieux Sander M (+)
42 3:13:32 Bultinck Wim M (+)
43 3:13:50 Vanhuysse Nicolas M40 (+)
44 3:13:53 Nys Davy M (+)
45 3:14:03 Vienne Michael M (+)
46 3:14:58 Bouttelegier Bart M40 (+)
47 3:17:31 Boucart Jerome M35 (+)
48 3:18:44 Steeman Marc M45 (+)
49 3:18:59 Van Tilburg John M50 (+)
50 3:19:07 Rosseel Pieter M35 (+)
51 3:19:26 Waelput Geert M40 (+)
52 3:19:43 Devlaminck Luk M45 (+)
53 3:19:48 Vannieuwenhuyse Jelle M (+)
54 3:20:01 Pattyn Dominique M45 (+)
55 3:20:08 Haglon Lilian (FRA) SEM/93 (+)
56 3:20:10 Bultynck Giovanni M35 (+)
57 3:20:39 Vandenbussche Didier M50 (+)
58 3:20:40 De Vos Benny M40 (+)
59 3:21:11 Vandoorne Jeroen M (+)
60 3:21:20 Dewaele Tom M45 (+)
61 3:21:21 Decock Mathieu M35 (+)
62 3:21:24 Pluvier Nathalie (BEL) F40 (+)
63 3:21:24 Gevers Koen M40 (+)
64 3:21:24 Termonia Piet M45 (+)
65 3:21:49 Van Compernolle Pieter M35 (+)
66 3:23:01 Gobert Pascal M (+)
67 3:23:16 Ysebaert Bart M35 (+)
68 3:23:17 Lobbens Arne M (+)
69 3:23:20 Vandamme Jeroen M (+)
70 3:23:23 Verbeke Pieter M (+)
71 3:23:47 Allegaert Mathias M (+)
72 3:24:03 Cossement Steven M40 (+)
73 3:24:05 Curinckx Koen M40 (+)
74 3:24:40 Nuytten Lode M45 (+)
75 3:25:11 De Bruyn Peter M45 (+)
76 3:25:28 Castelein Jeffry M40 (+)
77 3:25:30 Barbier Guido M55 (+)
78 3:25:54 Maveau Benjamin M (+)
79 3:25:56 Peeters Chris F50 (+)
80 3:25:59 Porreye Pascal M45 (+)
81 3:26:00 Vermesen Patrick M45 (+)
82 3:26:14 Geldhof Benny M40 (+)
83 3:26:21 Rogiers Dimitri M40 (+)
84 3:26:57 Deldicque Jean-simon M (+)
85 3:26:59 Sijbens Ludo M60 (+)
86 3:27:09 Staessens Luc M50 (+)
87 3:27:17 Ruyssen Denis M (+)
88 3:27:19 Alossery Giovanni M35 (+)
89 3:27:30 Van Daele Rudy M50 (+)
90 3:27:32 Gruyters Willem M (+)
91 3:27:46 De Coninck Koen M (+)
92 3:27:58 Burm Hans M50 (+)
93 3:28:12 Smets Damien M (+)
94 3:28:33 Van Royen Kristof M35 (+)
95 3:28:52 Castrale Frederic M40 (+)
96 3:29:01 Lameire Kris M40 (+)
97 3:29:18 Desodt Jan M50 (+)
98 3:29:30 Lemmens Michel M35 (+)
99 3:29:41 Vermaas Henk M55 (+)
100 3:29:42 Brabant Simon M (+)
101 3:29:43 Waelkens Jimmy M35 (+)
102 3:29:52 Depoortere Ludo M55 (+)
103 3:29:59 Decremer Fabian M35 (+)
104 3:30:13 Pauwels Robin M35 (+)
105 3:30:18 Vermeersch Timmy M (+)
106 3:30:20 Portier Kristof Team Luftnot M45 (+)
107 3:30:37 Vercammen Saskia F40 (+)
108 3:30:52 Maciag Grzegorz M35 (+)
109 3:30:55 Bruneel Patrick M45 (+)
110 3:31:00 Lampaert Petra F40 (+)
111 3:31:04 Gommers Kurt M40 (+)
112 3:31:11 Piccavet Rik M50 (+)
113 3:31:57 Goudezeune Geert M50 (+)
114 3:32:18 Merckaert Patrick M50 (+)
115 3:32:37 Staessens Wouter M (+)
116 3:32:42 Ooghe Stijn M (+)
117 3:32:49 Lamiere Randy M (+)
118 3:32:50 Seynaeve Bert M40 (+)
119 3:32:53 Declercq Benoit M40 (+)
120 3:33:08 Butstraen Wesley M35 (+)
121 3:33:13 Vanbruwaene Rudi M60 (+)
122 3:33:36 Naessens Steven M35 (+)
123 3:33:52 Koninkx Johan M40 (+)
124 3:33:56 Van Den Heuvel Michel M45 (+)
125 3:34:00 Van Kerschaever Stijn M (+)
126 3:34:03 Minne Erik M45 (+)
127 3:34:10 Therry Benedikt M35 (+)
128 3:34:14 Deconinck Leentje F35 (+)
129 3:34:41 Schepens Erwin M50 (+)
130 3:35:08 Koene Ingrid F50 (+)
131 3:35:22 Linders Frans M45 (+)
132 3:35:43 Feys Bert M (+)
133 3:36:22 Decat Jurgen M35 (+)
134 3:36:22 Ryckeboer Noil M60 (+)
135 3:36:23 De Schrijver Domien M (+)
136 3:36:26 Deleye Steven M (+)
137 3:36:36 Vermeersch Jean-luc M40 (+)
138 3:36:37 D'aubioul Matthias M (+)
139 3:37:14 Semezak Maxime M35 (+)
140 3:37:39 Beffort Marc (LUX) M50 (+)
141 3:37:48 Michelson Edwin M45 (+)
142 3:37:52 Ramon Ronny M45 (+)
143 3:38:04 Krekelbergh Nico M40 (+)
144 3:38:47 Loos Kevin M35 (+)
145 3:38:48 Verbrugge Karel M (+)
146 3:38:55 Eecloo Lieze F (+)
147 3:39:38 De Luyck Rob M40 (+)
148 3:39:45 Claeys Annika F (+)
149 3:40:03 De Keyser Marc M50 (+)
150 3:40:23 Muylle Guillaume M (+)
151 3:40:32 Van Roy Pieter M40 (+)
152 3:40:35 Demuynck Kevin M (+)
153 3:40:35 Bries Kjill M (+)
154 3:40:44 Dewitte Angelo M35 (+)
155 3:40:51 Libbrecht Lieven M40 (+)
156 3:41:07 Breugelmans Joachim M (+)
157 3:41:24 Verschelde Sam M (+)
158 3:41:33 Decuyper Luc M50 (+)
159 3:41:44 Merijn De Ruijter Van M (+)
160 3:41:50 De Smet Manu M (+)
161 3:42:00 De Wilde Bart M45 (+)
162 3:42:16 Monbailleu Filip M45 (+)
163 3:42:20 Van Delsen Steven M35 (+)
164 3:42:23 Kloek Patrick M50 (+)
165 3:42:26 Farrance Scott M (+)
166 3:42:41 Van De Ven Bart M35 (+)
167 3:42:41 Van De Ven Luc M55 (+)
168 3:42:41 De Corte David M35 (+)
169 3:42:51 Albers Philippe M55 (+)
170 3:43:00 Vanbroekhoven Niels M (+)
171 3:43:02 Vanderhaegen Joachim M (+)
172 3:43:05 Verhaegen Olivier M35 (+)
173 3:43:06 Belligh Hans M50 (+)
174 3:43:12 Bertier Frank M40 (+)
175 3:43:32 Naert Filip M55 (+)
176 3:43:33 Vandenheede Jean-marie M55 (+)
177 3:43:40 Depoorter Manuel M (+)
178 3:43:41 Scrugli Annie F35 (+)
179 3:43:51 Serrus Rembert M45 (+)
180 3:43:59 Dewilde Eric M60 (+)
181 3:44:08 Enckels Serge M40 (+)
182 3:44:11 Cordy Stefaan M40 (+)
183 3:44:20 Desvaux Joris M35 (+)
184 3:44:34 Van Vaerenbergh Philip M (+)
185 3:44:48 Vackier Pol M50 (+)
186 3:44:50 Lauwers Bart M (+)
187 3:44:58 Dumoulin Pieter M50 (+)
188 3:45:16 Deroo Jeroen M45 (+)
189 3:45:20 Beirnaert Adriaan M35 (+)
190 3:45:22 Semezak Alexandre M (+)
191 3:45:28 Racho Strauven M40 (+)
192 3:45:29 Sioen Andries M (+)
193 3:45:31 Baekelandt Rik M45 (+)
194 3:45:35 Poppe Jeroen M (+)
195 3:45:37 Vandermeulen Yves M50 (+)
196 3:45:41 Morgan Charles M35 (+)
197 3:45:51 Vandekerckhove Dirk M55 (+)
198 3:45:57 Windels Cederic M (+)
199 3:45:58 Jones Martyn M (+)
200 3:45:58 Van Hove Filip M35 (+)
201 3:45:59 De Broyer Davy M40 (+)
202 3:46:07 Drappier Olivier M45 (+)
203 3:46:23 Yu Qingzhen M35 (+)
204 3:46:38 Clinckaert Michiel M35 (+)
205 3:46:47 Bruynsteen Kurt M45 (+)
206 3:46:48 Vanderheer Stefaan M35 (+)
207 3:46:51 Lievrouw Geert M50 (+)
208 3:46:56 Kardol Hans M40 (+)
209 3:47:21 Buyse Geert M50 (+)
210 3:47:24 Vandenbussche Davy M35 (+)
211 3:47:33 Leys Bart M40 (+)
212 3:47:42 Prinzie Davy M (+)
213 3:47:45 Demeester Dieter M (+)
214 3:47:47 Deryckere Seppe M40 (+)
215 3:47:54 Dereyne Danny M50 (+)
216 3:48:01 Krawinkel Gwen M40 (+)
217 3:48:01 Magnus Jan M55 (+)
218 3:48:06 Short Andy M50 (+)
219 3:48:17 Durnez Bjorn M35 (+)
220 3:48:30 Derudder Henk M40 (+)
221 3:48:32 Vandenbulcke Nausikaa F50 (+)
222 3:48:54 Gouwy Davy M (+)
223 3:48:55 Lauwyck Geert (BEL) M55 (+)
224 3:49:27 Verbiest Tom M (+)
225 3:49:34 Bosman Paul M40 (+)
226 3:49:56 Vervoort Karel M (+)
227 3:50:34 Martens An F (+)
228 3:51:18 Broucke Ivo M (+)
229 3:51:24 Vanhoof Jasmien F (+)
230 3:51:35 Derudder Wim M45 (+)
231 3:51:39 Leroy Anthony M35 (+)
232 3:51:40 Altagracia Pepen Perez F35 (+)
233 3:51:47 Vandevoorde Marijn M (+)
234 3:51:47 Delvaux Jan M (+)
235 3:52:09 Baesen Jan M (+)
236 3:52:26 Courtois Ludovic M35 (+)
237 3:52:33 De Kesel Gino M45 (+)
238 3:52:45 Claeys Korneel M (+)
239 3:52:50 Vanwetswinkel Kristel F35 (+)
240 3:52:56 De Vrieze Luc M45 (+)
241 3:52:57 Bauwens Geert M50 (+)
242 3:53:16 Clauwaert Christian M50 (+)
243 3:53:25 Van Bruggen Michel M50 (+)
244 3:53:28 Van Der Jeugt Bruno M45 (+)
245 3:54:03 Petit Florent M (+)
246 3:54:11 De Braekeleer Maarten M (+)
247 3:54:15 De Nul Danny M55 (+)
248 3:54:25 Vandenberghe Gies M (+)
249 3:54:31 Vanneste Michail M35 (+)
250 3:54:34 Callewaert Sissi F35 (+)
251 3:54:45 Hast Mario M (+)
252 3:54:53 Verhaegen Els F35 (+)
253 3:55:14 Smolders Dirk M45 (+)
254 3:55:26 Hoorelbeke Christoph M (+)
255 3:55:27 Barbier Stan M (+)
256 3:55:35 Devoldre Dirk M55 (+)
257 3:55:48 Janssens Diederik M55 (+)
258 3:55:54 Vanhaverbeke Jeroen M35 (+)
259 3:56:00 Mols David M (+)
260 3:56:07 Vervekken Kristof M (+)
261 3:56:10 Van Hee Kobe M35 (+)
262 3:56:22 De Bruyne Lode M40 (+)
263 3:56:40 Horemans Chris M45 (+)
264 3:56:45 Van Bogaert Peter M45 (+)
265 3:56:53 Van Houtte Johan M50 (+)
266 3:57:05 Dekelver Pascale F40 (+)
267 3:57:09 Dehandschutter Herman M55 (+)
268 3:57:14 Derveaux Dennis M40 (+)
269 3:57:19 Boese Mathias M45 (+)
270 3:57:21 Stockx Dirk M40 (+)
271 3:57:23 Vercauteren Ivan M40 (+)
272 3:57:32 Balcaen Els F40 (+)
273 3:57:56 Beddeleem Alain M45 (+)
274 3:57:59 Luyten Willy M70+ (+)
275 3:58:09 Stremersch Stefan M40 (+)
276 3:58:10 Sternisa Peter M45 (+)
277 3:58:17 Strack Sascha M40 (+)
278 3:58:32 Segers Gunther M40 (+)
279 3:58:36 Roording Jaap M45 (+)
280 3:58:36 Klaassen Frans M45 (+)
281 3:58:37 Carlson Fredric M50 (+)
282 3:58:48 Doom Johan M45 (+)
283 3:58:50 Six Sandra F50 (+)
284 3:58:51 De Lee Hans M45 (+)
285 3:58:53 Strating Henny F45 (+)
286 3:58:54 Spaans Gerrit M60 (+)
287 3:58:54 Geerts Alwin M45 (+)
288 3:58:57 De Buck Sigrid F40 (+)
289 3:59:02 Kemseke Thomas M35 (+)
290 3:59:16 Caudron Kenny M35 (+)
291 3:59:26 Battel Klaas M35 (+)
292 3:59:32 Vanmolecot Steven M35 (+)
293 3:59:32 Beernaert Veerle F45 (+)
294 3:59:39 Vandeginste Nick M40 (+)
295 3:59:41 Baert Jurgen M40 (+)
296 3:59:43 De Weerdt Thomas M50 (+)
297 3:59:49 Charpentier Gilles (FRA) M50 (+)
298 3:59:49 Frement Yann (FRA) M45 (+)
299 3:59:53 Dequeker Ruben M (+)
300 3:59:54 Van Campenhoudt Michael M35 (+)
301 3:59:58 Hens Luc M50 (+)
302 4:00:00 Geerinck Stijn M35 (+)
303 4:00:00 Seys Antony M50 (+)
304 4:00:13 Vandenberghe Franky M50 (+)
305 4:00:15 Vandermeersch Dorine F35 (+)
306 4:00:25 De Muynck Nico M35 (+)
307 4:00:27 Vandenbussche Els F45 (+)
308 4:00:36 De Block Kristof M35 (+)
309 4:00:37 Joachims Anita F40 (+)
310 4:01:03 Huybrechts Patrick M40 (+)
311 4:01:05 D'halluin Tom M (+)
312 4:01:11 Willen Jo M40 (+)
313 4:01:41 Vanzeir Erwin M40 (+)
314 4:01:45 Dupont Thierry M45 (+)
315 4:01:55 Vermeesch Fernand M65 (+)
316 4:01:55 Kerckhove Dany F65 (+)
317 4:02:08 Hope Steve M55 (+)
318 4:02:13 Van Belleghem Kris M40 (+)
319 4:02:18 Lacage Kris M35 (+)
320 4:02:45 Roik Christian M50 (+)
321 4:03:04 Pype Bene M35 (+)
322 4:03:37 Coppenolle Heidi F45 (+)
323 4:03:53 Guns Michail M (+)
324 4:04:06 Van Houtte Geert M50 (+)
325 4:04:06 Vanherreweghe Steven M50 (+)
326 4:04:26 Parmentier Tom M45 (+)
327 4:04:50 Morlion Lode M50 (+)
328 4:05:06 Vanderbeken Dirk M55 (+)
329 4:05:21 Pacque Hans M50 (+)
330 4:05:28 Verbruggen Mick M (+)
331 4:05:42 Lesschaeve Christophe M45 (+)
332 4:06:13 Wera Lynn F (+)
333 4:06:17 Decaestecker Sandy M (+)
334 4:06:27 De Wilde Jimmy M40 (+)
335 4:06:32 Frederickx Maddy F45 (+)
336 4:06:48 Troch David M35 (+)
337 4:06:57 Kums Dirk M (+)
338 4:07:04 Nelsen Ferdinand M65 (+)
339 4:07:20 De Winne Frank M50 (+)
340 4:07:21 Klomp Henriette F50 (+)
341 4:07:21 Domhof Petra F50 (+)
342 4:07:27 Flies Dirk M55 (+)
343 4:07:31 Ollevier Ringo M45 (+)
344 4:07:53 Dedeyne Frederik M35 (+)
345 4:07:55 Van Damme Isabel F35 (+)
346 4:07:55 Vincke Saskia F35 (+)
347 4:08:04 Vuylsteke Fabrice M40 (+)
348 4:08:07 Hinderykx Jurgen M40 (+)
349 4:08:49 Everaet Sander M (+)
350 4:09:04 Vroman Benedikt M40 (+)
351 4:09:05 Daels Kurt M40 (+)
352 4:09:19 Poppe Patrick M55 (+)
353 4:09:41 Van Haecke Kevin M35 (+)
354 4:09:51 Boeve Sien F35 (+)
355 4:10:02 D'hond Guy M45 (+)
356 4:10:36 Delanote Stijn M (+)
357 4:11:03 Dekeyser Brenda F40 (+)
358 4:11:04 Van Elsen Greg M35 (+)
359 4:11:13 Vandaele Geert M50 (+)
360 4:11:16 Vandeven Stijn M35 (+)
361 4:11:20 De Baecke Christ M50 (+)
362 4:11:31 De Bock Maarten M45 (+)
363 4:11:33 Pollet Filip M (+)
364 4:11:43 Sterckx Jan M35 (+)
365 4:11:57 Vandecasteele Frederik M40 (+)
366 4:12:02 Callewaert Bjorn M35 (+)
367 4:12:13 Moens Gauthier M (+)
368 4:12:14 Martin Robert M45 (+)
369 4:12:24 Moens Stephanie F (+)
370 4:12:24 Pieter Jan Ramon M35 (+)
371 4:12:26 Verhulst Wendy F (+)
372 4:12:42 Callewaert Marnix M55 (+)
373 4:12:53 Desmet Carl M (+)
374 4:13:05 Konix Werner M50 (+)
375 4:13:24 Bert Joost (BEL) M60 (+)
376 4:13:47 Vranckaert Eddy M50 (+)
377 4:13:53 Vande Velde Dirk M50 (+)
378 4:14:25 Wylleman Xavier M40 (+)
379 4:14:26 Plonka John M (+)
380 4:14:42 Vermeulen Filip M40 (+)
381 4:14:57 Belien Jan M50 (+)
382 4:15:02 Baeyens Bart M35 (+)
383 4:15:18 Joos Brecht M (+)
384 4:15:26 Van Goethem Natasja F (+)
385 4:15:35 Pannier Ronald (BEL) M60 (+)
386 4:15:57 Vancauwenberghe Werner M (+)
387 4:15:59 Rijken Wim M35 (+)
388 4:16:28 Ryken Geert M35 (+)
389 4:16:43 Poulain Damien M45 (+)
390 4:16:51 Lemmens Sam M45 (+)
391 4:16:56 Callens Xavier M70+ (+)
392 4:16:58 Tack Hilde F40 (+)
393 4:16:58 Vandenbroucke Inge F40 (+)
394 4:17:20 Sayoen Kurt M45 (+)
395 4:17:33 Sanchez Jorge (BEL) M50 (+)
396 4:17:39 De Lee Johan M45 (+)
397 4:17:39 Van Eetveldt Ghenia F35 (+)
398 4:17:39 Delcroix Matthieu M35 (+)
399 4:17:40 Van Woensel Lut F60 (+)
400 4:18:04 Devooght Frankie M60 (+)
401 4:18:20 Pieters Tom M40 (+)
402 4:18:24 Vandevijvere Monique F45 (+)
403 4:18:47 Celis Paul M60 (+)
404 4:19:07 Van Der Harst Jeroen M45 (+)
405 4:19:14 De Jonghe Bert M35 (+)
406 4:19:27 Pauwels Olivier M50 (+)
407 4:19:53 Scholz Karl M60 (+)
408 4:20:17 De Bel Johnny M45 (+)
409 4:20:50 Hap Jeroen M (+)
410 4:21:00 Beetens Christophe M40 (+)
411 4:21:25 Platteeuw Dieter M35 (+)
412 4:21:29 Logghe Frank M40 (+)
413 4:21:34 Decoodt Pieter M (+)
414 4:21:52 Van Puymbroeck Dirk M50 (+)
415 4:21:56 Parmentier Jonas M (+)
416 4:22:17 Bulcaen Boudewijn M65 (+)
417 4:22:41 Broos Werner M50 (+)
418 4:23:07 Van Der Vlis Reint M40 (+)
419 4:23:22 Rau Peter M50 (+)
420 4:24:17 Vandierendonck Franky M45 (+)
421 4:25:01 Veryser Ann F45 (+)
422 4:25:06 De Petter Peter M50 (+)
423 4:25:19 Van Glabeke Robert M65 (+)
424 4:25:20 Guequierre John M65 (+)
425 4:25:23 Vanderbeke Frank M35 (+)
426 4:25:54 Coene Nic F55 (+)
427 4:26:32 De Backer Marnix M50 (+)
428 4:26:56 Hale Katie F35 (+)
429 4:27:59 Maes Luc M60 (+)
430 4:28:03 Mols Frank M55 (+)
431 4:28:03 Marginet Cathy F40 (+)
432 4:28:08 Vandenhoeke Nick M (+)
433 4:28:30 David Dieter M35 (+)
434 4:28:32 Disco Mario M50 (+)
435 4:29:03 Van Ackere Claude M40 (+)
436 4:29:04 Trio Ditri M40 (+)
437 4:29:36 Claus Lieven M (+)
438 4:29:39 Dufour Steven M (+)
439 4:29:40 Morias David M35 (+)
440 4:29:40 De Wandel Chris M40 (+)
441 4:29:51 Hoet Reinoud M50 (+)
442 4:29:52 Van Den Abbeele Tessa F45 (+)
443 4:29:59 Van Gendt Carina F55 (+)
444 4:30:02 Schellekens Patrick M50 (+)
445 4:30:03 Delfosse Alain M70+ (+)
446 4:30:05 Degrave Danny M (+)
447 4:30:06 Van Vynckt Christiaan M70+ (+)
448 4:30:06 Lauwereys Timothy M (+)
449 4:30:07 Bruynooghe Hugo M65 (+)
450 4:31:23 Tavernier Stephan M45 (+)
451 4:31:56 Frank Team Luftnot M45 (+)
452 4:32:26 Van Hessche Jo M55 (+)
453 4:32:29 Vanthuyne Kris M50 (+)
454 4:33:03 Dekempe Linda F50 (+)
455 4:33:22 Tielens Kris M40 (+)
456 4:33:36 Vanhecke Rikkie M55 (+)
457 4:34:05 Hiel Danny M40 (+)
458 4:34:45 Moraux Kevin M (+)
459 4:34:46 Baltais Janis M35 (+)
460 4:34:47 Pouls Jacky M45 (+)
461 4:34:49 De Coensel Bart M50 (+)
462 4:34:59 Vervloet Lutgart F50 (+)
463 4:35:39 Labeeuw Yoann M (+)
464 4:35:57 Delvaux Joke F40 (+)
465 4:36:42 Verschueren Geert M40 (+)
466 4:36:56 Declerck Johan M50 (+)
467 4:37:16 Lion Johnny M60 (+)
468 4:37:39 Verbeke Paul M55 (+)
469 4:38:19 Vandenberghe Koen M45 (+)
470 4:38:30 Brouckaert Koen M35 (+)
471 4:38:31 Herreman Ronny M50 (+)
472 4:39:12 Vandeputte Stefan M40 (+)
473 4:39:21 Weckhuysen Inge F35 (+)
474 4:40:14 Remmery Christoph M45 (+)
475 4:40:52 Buyens Lieve F60 (+)
476 4:41:12 Vanoppen Marleen F55 (+)
477 4:41:13 De Raedt Inge F45 (+)
478 4:41:29 Lagage Yves M45 (+)
479 4:41:47 Vlemincx Dirk M50 (+)
480 4:41:55 De Smet Raf M40 (+)
481 4:41:55 Catteeuw Kelly F40 (+)
482 4:42:53 Vandervoort Denis M50 (+)
483 4:43:31 Bohyn Johan M50 (+)
484 4:43:31 Bohyn Frederik M (+)
485 4:44:09 Verbeke Eduard M65 (+)
486 4:44:20 Mccord Maureen F50 (+)
487 4:44:31 Hap Charlotte F (+)
488 4:44:57 De Windt Toon M60 (+)
489 4:45:17 White Bob M50 (+)
490 4:46:19 Wyffels Lieven M40 (+)
491 4:46:48 Desseyn Gaby M65 (+)
492 4:47:50 Vanbleu Andy M50 (+)
493 4:48:05 Outtier Roland M65 (+)
494 4:48:25 Bekaert Philippe M35 (+)
495 4:49:13 Ringoot Bjorn M35 (+)
496 4:49:13 Desmaele Tina F45 (+)
497 4:49:32 Van Kerschaever Goedele F35 (+)
498 4:49:48 Minnaard Hans M55 (+)
499 4:50:51 Demeulemeester Jill F35 (+)
500 4:51:09 Christiani Cas M40 (+)
501 4:52:12 Philips Richard M55 (+)
502 4:52:18 Robinson Daniel M (+)
503 4:52:18 Robinson Kieran M (+)
504 4:52:41 Hertveldt Kathy F35 (+)
505 4:53:17 Yserbyt Mia F50 (+)
506 4:54:54 Snel Brigitte F40 (+)
507 4:55:59 De Leeuw Sven M45 (+)
508 4:56:23 Leblanc Lucile F (+)
509 4:57:05 Vanden Bussche Yvette F50 (+)
510 4:58:52 Vansteenkiste Koen M50 (+)
511 4:59:31 De Block Ivo M45 (+)
512 5:02:35 Cattoor Katrien F40 (+)
513 5:05:41 Damhuis Sjef M55 (+)
514 5:05:52 De Pannemaeker Wesley M (+)
515 5:06:30 Wekking Benny M60 (+)
516 5:08:15 Verrept Marc M60 (+)
517 5:08:16 Rogiers Leen F (+)
518 5:11:16 Simons Kevin M (+)
519 5:14:35 Vanstraelen Geert M50 (+)
520 5:14:43 Frecourt Jean-marc M55 (+)
521 5:16:00 Verbiest Robby M35 (+)
522 5:23:11 Obyn Dominique F (+)
523 5:29:55 Medaer Martine F45 (+)
524 5:34:51 El Yagoubi Mohammed M (+)
525 5:39:17 Krick Alex M50 (+)
526 5:49:27 Feeney Mylene F55 (+)
527 5:49:28 Berger Manuel M50 (+)
528 5:49:28 Hulsing Bert M55 (+)
529 6:05:30 Keetman Joop M70+ (+)